This is the latest recevied weather packets stored in our database for station/object HUGOCO. If no packets are shown the sender has not sent any weather packets the latest 1 day(s).
| Time | Temp. | Humidity | Pressure | Rain* | Wind** | Luminosity | Snow |
|---|---|---|---|---|---|---|---|
| 1778106357 | 2.78° C | 90% | 1026.5 hPa | 0.25 mm | - | - | - |
| 1778104557 | 2.78° C | 95% | 1026.4 hPa | 0 mm | - | - | - |
| 1778101857 | 1.11° C | 96% | 1027 hPa | 0.25 mm | - | - | - |
| 1778100957 | 0.56° C | 96% | 1027.1 hPa | 0.51 mm | - | - | - |
| 1778099158 | 0.56° C | 96% | 1027.3 hPa | 0.76 mm | - | - | - |
| 1778098257 | 0.56° C | 96% | 1027.3 hPa | 1.02 mm | - | - | - |
| 1778097360 | 0° C | 96% | 1027.1 hPa | 1.02 mm | - | - | - |
| 1778096457 | 0° C | 96% | 1027.1 hPa | 1.02 mm | - | - | - |
| 1778089261 | 0° C | 96% | 1026.8 hPa | 2.03 mm | - | - | - |
| 1778081158 | -0.56° C | 96% | 1025.9 hPa | 0 mm | - | - | - |
| 1778077558 | -0.56° C | 95% | 1025.1 hPa | 0 mm | - | - | - |
| 1778076658 | -1.11° C | 95% | 1025 hPa | 0 mm | - | - | - |
| 1778075758 | -1.11° C | 95% | 1024.7 hPa | 0 mm | - | - | - |
| 1778073958 | -1.11° C | 95% | 1024.2 hPa | 0 mm | - | - | - |
| 1778073058 | -1.11° C | 95% | 1024 hPa | 0 mm | - | - | - |
| 1778072158 | -1.11° C | 95% | 1023.7 hPa | 0 mm | - | - | - |
| 1778067659 | -1.11° C | 95% | 1023.2 hPa | 0 mm | - | - | - |
| 1778065858 | -1.11° C | 95% | 1022.7 hPa | 0 mm | - | - | - |
| 1778064059 | -1.11° C | 95% | 1022.6 hPa | 0 mm | - | - | - |
| 1778063640 | -0.56° C | 95% | 1022.6 hPa | 0 mm | - | - | - |
| 1778060459 | -0.56° C | 95% | 1022.3 hPa | 0 mm | - | - | - |
| 1778053801 | -0.56° C | 95% | 1021.3 hPa | 0 mm | - | - | - |
| 1778051459 | -0.56° C | 94% | 1021.3 hPa | 0 mm | - | - | - |
| 1778050559 | -0.56° C | 94% | 1021 hPa | 0 mm | - | - | - |
| 1778048759 | -0.56° C | 94% | 1020.8 hPa | 0 mm | - | - | - |
* Rain latest hour (hover to see other rain measurements)
** Current wind speed in m/s (hover to see current wind gust speed)